FENGYUN 1C DEB, 31921

Orbit data source: Space-Track

FENGYUN 1C DEB, 31921 is space debris in SSO originally from a launch on Mon, 10 May 1999 UTC launched from the Taiyaun Space Center, China (TSC). Fengyun 1C debris stems from the Chinese weather satellite Fengyun-1C, which was intentionally destroyed by a Chinese anti-satellite missile in 2007. This event dramatically increased the amount of space debris, with thousands of trackable fragments posing hazards to satellites and human spaceflight. The Fengyun 1C debris cloud has become a focal point in discussions about space sustainability and the need for international regulations to prevent the creation of new debris.

Loading next visibility...
Identifier
31921, 1999-025CLY
Orbit
SSO
Country
Flag of CNCN / PRC
Related business
Manufacturer
Unknown
Mission
Spacecraft
Bus & Motor
Unknown
Mass
Unknown
Launch date (UTC)
1999-05-10 (27 years ago)
Launch vehicle
Unknown
Launch site
Taiyaun Space Center, China (TSC)
Object type
Payload
Rocket body
Debris
Shape & HBR
Unknown shape, 0.1 m
Radar Cross Section
Small (<0.1 m²)

Expand to show TLE details & history
Last TLE update: 18 hours ago

TLE from 18 hours ago
0 FENGYUN 1C DEB
1 31921U 99025CLY 26265.15973511  .00000889  00000-0  83263-3 0  9994
2 31921  99.3196 156.7165 0200166 240.9284 117.1688 13.75908724962038
Epoch: 2026-09-22T03:50Z
TLE epoch observation values (Epoch: 2026-09-22T03:50:01.113Z)
Latitude
-0.00006°
Longitude
98.18267°
Altitude
1,050.82 km
Speed
7.292 km/s
True Right ascension
10h 26m 51s
True Declination
0° 00' 00"
Sunlit
Object was in daylight at epoch
Visualization orbit readout
Latitude
Unknown
Longitude
Unknown
Altitude
Unknown
Speed
Unknown
Apparent Right ascension
Unknown
Apparent Declination
Unknown
Sunlit
N/A
Visualization observer readout
Local Sidereal Time
14:54:19
Azimuth
Unknown
Elevation
Unknown
Doppler factor
Unknown
Orbital elements
Apogee altitude
1,122.878 km
Perigee altitude
828.481 km
Semi-major axis
7,353.817 km
Eccentricity
0.02002
Inclination
99.3196°
RAAN
156.7165°
Arg. of periapsis
240.9284°
True anomaly
119.18598°
Mean anomaly
117.1688°
Eccentric anomaly
118.17973°
Mean motion
3.44171 °/min
Orbital period
104.6 mins
BSTAR
0.00083263
Loading maneuver chart data...
Computing Atmospheric mass density...

Documentation

Showing up to 5 results
|